Tiempo cada hora Al Mafraq

Hoy, 27 Julio, Martes

Tiempo Temperatura Precipitaciones Viento Presión Humedad
00:00 +26°C° 0 mm 3 mps 700 mmHg 59%
01:00 +25°C° 0 mm 3 mps 699 mmHg 62%
02:00 +25°C° 0 mm 3 mps 699 mmHg 65%
03:00 +24°C° 0 mm 3 mps 699 mmHg 67%
04:00 +24°C° 0 mm 3 mps 699 mmHg 68%
05:00 +23°C° 0 mm 2 mps 699 mmHg 69%
06:00 +25°C° 0 mm 3 mps 700 mmHg 59%
07:00 +27°C° 0 mm 4 mps 700 mmHg 49%
08:00 +29°C° 0 mm 5 mps 700 mmHg 38%
09:00 +32°C° 0 mm 5 mps 701 mmHg 33%
10:00 +33°C° 0 mm 6 mps 701 mmHg 29%
11:00 +35°C° 0 mm 7 mps 701 mmHg 25%
12:00 +35°C° 0 mm 7 mps 700 mmHg 23%
13:00 +36°C° 0 mm 7 mps 700 mmHg 22%
14:00 +38°C° 0 mm 8 mps 700 mmHg 21%
15:00 +37°C° 0 mm 8 mps 700 mmHg 24%
16:00 +35°C° 0 mm 8 mps 699 mmHg 27%
17:00 +33°C° 0 mm 8 mps 699 mmHg 31%
18:00 +32°C° 0 mm 7 mps 699 mmHg 38%
19:00 +29°C° 0 mm 5 mps 699 mmHg 45%
20:00 +27°C° 0 mm 4 mps 699 mmHg 53%
21:00 +27°C° 0 mm 4 mps 699 mmHg 54%
22:00 +26°C° 0 mm 3 mps 698 mmHg 56%
23:00 +25°C° 0 mm 3 mps 698 mmHg 57%

Mañana, 28 Julio, Miércoles

Tiempo Temperatura Precipitaciones Viento Presión Humedad
00:00 +25°C° 0 mm 3 mps 698 mmHg 60%
01:00 +24°C° 0 mm 2 mps 698 mmHg 63%
02:00 +24°C° 0 mm 2 mps 698 mmHg 66%
03:00 +23°C° 0 mm 2 mps 698 mmHg 69%
04:00 +23°C° 0 mm 2 mps 698 mmHg 72%
05:00 +23°C° 0 mm 2 mps 698 mmHg 75%
06:00 +25°C° 0 mm 3 mps 698 mmHg 65%
07:00 +27°C° 0 mm 3 mps 698 mmHg 54%
08:00 +29°C° 0 mm 4 mps 698 mmHg 44%
09:00 +30°C° 0 mm 5 mps 698 mmHg 38%
10:00 +33°C° 0 mm 6 mps 698 mmHg 32%
11:00 +35°C° 0 mm 6 mps 698 mmHg 25%
12:00 +36°C° 0 mm 7 mps 698 mmHg 24%
13:00 +37°C° 0 mm 8 mps 698 mmHg 23%
14:00 +38°C° 0 mm 8 mps 698 mmHg 21%
15:00 +37°C° 0 mm 8 mps 697 mmHg 25%
16:00 +35°C° 0 mm 8 mps 697 mmHg 29%
17:00 +34°C° 0 mm 8 mps 697 mmHg 32%
18:00 +32°C° 0 mm 7 mps 697 mmHg 40%
19:00 +29°C° 0 mm 6 mps 697 mmHg 48%
20:00 +27°C° 0 mm 4 mps 697 mmHg 56%
21:00 +27°C° 0 mm 4 mps 697 mmHg 57%
22:00 +26°C° 0 mm 3 mps 697 mmHg 59%
23:00 +26°C° 0 mm 3 mps 697 mmHg 61%

Pasado mañana, 29 Julio, Jueves

Tiempo Temperatura Precipitaciones Viento Presión Humedad
00:00 +25°C° 0 mm 3 mps 697 mmHg 65%
01:00 +24°C° 0 mm 3 mps 696 mmHg 69%
02:00 +24°C° 0 mm 2 mps 696 mmHg 74%
03:00 +23°C° 0 mm 2 mps 696 mmHg 76%
04:00 +23°C° 0 mm 2 mps 696 mmHg 78%
05:00 +23°C° 0 mm 2 mps 696 mmHg 80%
06:00 +25°C° 0 mm 3 mps 696 mmHg 68%
07:00 +27°C° 0 mm 3 mps 697 mmHg 56%
08:00 +28°C° 0 mm 4 mps 697 mmHg 44%
09:00 +30°C° 0 mm 5 mps 697 mmHg 39%
10:00 +33°C° 0 mm 6 mps 697 mmHg 34%
11:00 +35°C° 0 mm 6 mps 697 mmHg 28%
12:00 +35°C° 0 mm 7 mps 697 mmHg 26%
13:00 +36°C° 0 mm 7 mps 697 mmHg 25%
14:00 +38°C° 0 mm 8 mps 697 mmHg 23%
15:00 +37°C° 0 mm 8 mps 696 mmHg 25%
16:00 +35°C° 0 mm 8 mps 696 mmHg 27%
17:00 +34°C° 0 mm 8 mps 696 mmHg 28%
18:00 +33°C° 0 mm 7 mps 696 mmHg 35%
19:00 +30°C° 0 mm 6 mps 696 mmHg 41%
20:00 +28°C° 0 mm 4 mps 696 mmHg 48%
21:00 +27°C° 0 mm 4 mps 696 mmHg 50%
22:00 +26°C° 0 mm 3 mps 696 mmHg 52%
23:00 +26°C° 0 mm 2 mps 696 mmHg 54%

30 Julio, Viernes

Tiempo Temperatura Precipitaciones Viento Presión Humedad
00:00 +25°C° 0 mm 2 mps 696 mmHg 55%
01:00 +25°C° 0 mm 2 mps 696 mmHg 56%
02:00 +24°C° 0 mm 2 mps 695 mmHg 57%
03:00 +24°C° 0 mm 2 mps 695 mmHg 59%
04:00 +24°C° 0 mm 2 mps 695 mmHg 60%
05:00 +23°C° 0 mm 2 mps 695 mmHg 62%
06:00 +25°C° 0 mm 2 mps 696 mmHg 55%
07:00 +27°C° 0 mm 3 mps 696 mmHg 48%
08:00 +29°C° 0 mm 3 mps 697 mmHg 41%
09:00 +32°C° 0 mm 4 mps 697 mmHg 35%
10:00 +34°C° 0 mm 4 mps 697 mmHg 29%
11:00 +36°C° 0 mm 5 mps 697 mmHg 22%
12:00 +36°C° 0 mm 5 mps 697 mmHg 21%
13:00 +38°C° 0 mm 6 mps 696 mmHg 20%
14:00 +39°C° 0 mm 6 mps 696 mmHg 18%
15:00 +38°C° 0 mm 7 mps 696 mmHg 20%
16:00 +37°C° 0 mm 8 mps 696 mmHg 23%
17:00 +37°C° 0 mm 8 mps 696 mmHg 25%
18:00 +34°C° 0 mm 7 mps 696 mmHg 31%
19:00 +32°C° 0 mm 5 mps 696 mmHg 36%
20:00 +29°C° 0 mm 3 mps 696 mmHg 41%
21:00 +28°C° 0 mm 3 mps 696 mmHg 41%
22:00 +27°C° 0 mm 2 mps 696 mmHg 40%
23:00 +27°C° 0 mm 2 mps 696 mmHg 40%

31 Julio, Sábado

Tiempo Temperatura Precipitaciones Viento Presión Humedad
00:00 +26°C° 0 mm 2 mps 696 mmHg 39%
01:00 +26°C° 0 mm 2 mps 696 mmHg 38%
02:00 +25°C° 0 mm 2 mps 695 mmHg 38%
03:00 +25°C° 0 mm 2 mps 695 mmHg 39%
04:00 +24°C° 0 mm 2 mps 696 mmHg 41%
05:00 +24°C° 0 mm 2 mps 696 mmHg 43%
06:00 +26°C° 0 mm 2 mps 696 mmHg 38%
07:00 +28°C° 0 mm 3 mps 697 mmHg 33%
08:00 +30°C° 0 mm 3 mps 697 mmHg 29%
09:00 +33°C° 0 mm 4 mps 697 mmHg 26%
10:00 +35°C° 0 mm 5 mps 697 mmHg 22%
11:00 +36°C° 0 mm 6 mps 697 mmHg 19%
12:00 +38°C° 0 mm 7 mps 697 mmHg 18%
13:00 +39°C° 0 mm 7 mps 697 mmHg 17%
14:00 +39°C° 0 mm 7 mps 697 mmHg 15%
15:00 +38°C° 0 mm 8 mps 697 mmHg 17%
16:00 +38°C° 0 mm 8 mps 697 mmHg 18%
17:00 +37°C° 0 mm 8 mps 697 mmHg 20%
18:00 +34°C° 0 mm 7 mps 697 mmHg 25%
19:00 +32°C° 0 mm 5 mps 697 mmHg 29%
20:00 +29°C° 0 mm 3 mps 697 mmHg 34%
21:00 +28°C° 0 mm 3 mps 697 mmHg 33%
22:00 +27°C° 0 mm 2 mps 697 mmHg 32%
23:00 +27°C° 0 mm 2 mps 697 mmHg 31%

1 Agosto, Domingo

Tiempo Temperatura Precipitaciones Viento Presión Humedad
00:00 +26°C° 0 mm 1 mps 696 mmHg 30%
01:00 +26°C° 0 mm 1 mps 696 mmHg 29%
02:00 +25°C° 0 mm 1 mps 696 mmHg 28%
03:00 +25°C° 0 mm 1 mps 696 mmHg 29%
04:00 +25°C° 0 mm 1 mps 696 mmHg 30%
05:00 +24°C° 0 mm 1 mps 696 mmHg 30%
06:00 +27°C° 0 mm 2 mps 697 mmHg 28%
07:00 +29°C° 0 mm 3 mps 697 mmHg 25%
08:00 +31°C° 0 mm 3 mps 698 mmHg 22%
09:00 +33°C° 0 mm 4 mps 698 mmHg 21%
10:00 +35°C° 0 mm 5 mps 698 mmHg 19%
11:00 +36°C° 0 mm 6 mps 698 mmHg 18%
12:00 +38°C° 0 mm 7 mps 698 mmHg 17%
13:00 +39°C° 0 mm 7 mps 698 mmHg 16%
14:00 +39°C° 0 mm 8 mps 697 mmHg 15%
15:00 +39°C° 0 mm 8 mps 697 mmHg 16%
16:00 +38°C° 0 mm 8 mps 697 mmHg 18%
17:00 +37°C° 0 mm 9 mps 697 mmHg 20%
18:00 +34°C° 0 mm 7 mps 697 mmHg 24%
19:00 +32°C° 0 mm 5 mps 698 mmHg 29%
20:00 +29°C° 0 mm 3 mps 698 mmHg 33%
21:00 +28°C° 0 mm 3 mps 698 mmHg 34%
22:00 +28°C° 0 mm 2 mps 697 mmHg 34%
23:00 +27°C° 0 mm 1 mps 697 mmHg 34%
Mostrar más

Necesitamos Su Consentimiento

Meteoprog y nuestros Proveedores de Servicios pueden almacenar y acceder a sus datos personales como cookies, identificadores de dispositivo u otras tecnologías similares de su dispositivo y procesar dichos datos para personalizar contenido y anuncios, además de ofrecer funciones de redes sociales y analizar el tráfico.

  • Almacenar y/o acceder a información en su dispositivo

    Se puede almacenar o acceder a cookies, identificadores de dispositivo u otra información de su dispositivo para los fines anteriormente indicados.

  • Anuncios y contenido personalizados, medición de anuncios y contenido, percepciones del público, y desarrollo de productos

    Los anuncios y el contenido pueden personalizarse en base a su perfil. Se pueden añadir más datos para personalizar mejor los anuncios y contenidos. Se puede medir el rendimiento de los anuncios y contenidos. Se puede obtener la percepción sobre el público que ha visto los anuncios y contenidos. Dichos datos pueden usarse para desarrollar o mejorar la experiencia del usuario, sistemas y software.

Al hacer clic en ‘Estoy De Acuerdo’ usted permitirá el uso de las cookies, identificadores de dispositivo, balizas web u otras tecnologías similares indicadas. Su configuración puede cambiarse desde el navegador de su dispositivo.

Para ciertos fines, los intereses legítimos pueden ser considerados por encima del consentimiento. Puede leer más sobre ello en nuestra Política de Privacidad y Cookies.